Simultaneous Nadir Overpasses (SNOs) Predictions

Prediction of SNOs between NOAA-19 and NPP Satellite Orbit:

Table of predicted SNOs for the next 14.0 days since TLE Epoch: 9/26/2020
Index Date (NOAA-19) Time (NOAA-19) Lat,Lon (NOAA-19) SZA (NOAA-19 ) Date (NPP) Time (NPP) Lat,Lon (NPP) SZA (NPP ) Distance(km) Time Diff (sec)
1 10/09/2020 14:11:11 79.02, -63.40 86.77 10/09/2020 14:12:26 79.02, -63.53 86.75 2.95 75
2 10/09/2020 15:02:10 -79.03, 103.88 93.22 10/09/2020 15:03:11 -79.02, 103.74 93.23 3.04 61
3 10/09/2020 15:53:12 79.01, -89.03 86.79 10/09/2020 15:53:56 79.02, -88.94 86.78 2.48 44
4 10/09/2020 16:44:11 -79.01, 78.25 93.20 10/09/2020 16:44:41 -79.03, 78.33 93.20 2.51 30
5 10/09/2020 17:35:12 79.02,-114.40 86.82 10/09/2020 17:35:26 79.03,-114.34 86.82 1.20 14
6 10/09/2020 18:26:11 -79.03, 52.89 93.17 10/09/2020 18:26:11 -79.03, 52.93 93.17 0.98 0
7 10/09/2020 19:17:12 79.04,-139.77 86.85 10/09/2020 19:16:56 79.03,-139.75 86.85 1.06 16
8 10/09/2020 20:08:11 -79.04, 27.52 93.14 10/09/2020 20:07:41 -79.04, 27.52 93.14 0.75 30
9 10/09/2020 20:59:12 79.06,-165.14 86.88 10/09/2020 20:58:26 79.04,-165.15 86.88 2.28 46
10 10/09/2020 21:50:11 -79.06, 2.16 93.11 10/09/2020 21:49:11 -79.04, 2.12 93.10 2.25 60
11 10/09/2020 22:41:11 79.10, 169.76 86.92 10/09/2020 22:39:58 79.11, 168.94 87.02 17.32 73
